Showing default

KHALIFASAT, 43676

Orbit data source: Space-Track

KHALIFASAT, 43676 is a payload satellite owned by Rashid Space Ctr (AE) in SSO that was launched on Mon, 29 Oct 2018 UTC via an H-IIA 202 launch vehicle from the Tanegashima Space Center (TNSTA). Payload-class satellites include a variety of spacecraft equipped with specific instruments for various scientific and technological missions. These include communications satellites like Starlink; space stations such as the ISS; scientific satellites like the Hubble; Earth observation satellites from companies like Planet Labs, Umbra, and HawkEye 360; GPS; miniature CubeSats for education and research; and military/defense satellites.

Loading next visibility...
Identifier
43676, 2018-084F
Orbit
SSO
Country
Flag of AEAE / UAE
Related business
Manufacturer
MBRSC/SATREC
Mission
Operational Civil Imaging
Bus & Motor
SI-300, Unknown motor
Mass
330 kg wet, 300 kg dry
Launch date (UTC)
2018-10-29 (7 years ago)
Launch vehicle
H-IIA 202
Launch site
Tanegashima Space Center (TNSTA)
Object type
Payload
Rocket body
Debris
Shape & HBR
Hex Cyl + 3 Pan, 1.5 m
Radar Cross Section
2.520 m², Large (>1 m²)

Expand to show TLE details & history
Last TLE update: 8 hours ago

TLE from 8 hours ago
0 KHALIFASAT
1 43676U 18084F   26034.60776010  .00002426  00000-0  19636-3 0  9991
2 43676  98.0850 211.7032 0004914 175.4833 184.6435 15.00762869395735
Epoch: 2026-02-03T14:35Z
TLE epoch observation values (Epoch: 2026-02-03T14:35:10.472Z)
Latitude
-0.00002°
Longitude
-140.87669°
Altitude
570.988 km
Speed
7.574 km/s
True Right ascension
14h 06m 48s
True Declination
0° 00' 00"
Sunlit
Object was in daylight at epoch
Visualization orbit readout
Latitude
Unknown
Longitude
Unknown
Altitude
Unknown
Speed
Unknown
Apparent Right ascension
Unknown
Apparent Declination
Unknown
Sunlit
N/A
Visualization observer readout
Local Sidereal Time
00:56:17
Azimuth
Unknown
Elevation
Unknown
Doppler factor
Unknown
Orbital elements
Apogee altitude
564.974 km
Perigee altitude
558.154 km
Semi-major axis
6,939.701 km
Eccentricity
0.00049
Inclination
98.085°
RAAN
211.7032°
Arg. of periapsis
175.4833°
True anomaly
184.63894°
Mean anomaly
184.6435°
Eccentric anomaly
184.64122°
Mean motion
3.75433 °/min
Orbital period
95.89 mins
BSTAR
0.00019636
Loading maneuver chart data...
Computing Atmospheric mass density...
Loading historical data...
Loading historical data...
Loading historical data...
Loading historical data...
Loading historical data...
Loading historical data...
Loading historical data...

Documentation

Showing up to 5 results
|